| time (UTC) | temp F | wind direction | speed MPH | gust MPH | rain 1hr in | rain 24hr in | rain mn in | humidity % | barometer mb |
| 20260904200039 | 74 | 220 | 0.0 | 2.0 | 0.00 | 0.06 | 0.00 | 76 | 1012.8 |
| 20260904194539 | 74 | 219 | 1.0 | 4.0 | 0.00 | 0.06 | 0.00 | 76 | 1012.9 |
| 20260904193038 | 74 | 236 | 0.0 | 5.0 | 0.00 | 0.06 | 0.00 | 76 | 1013.1 |
| 20260904191538 | 74 | 188 | 0.0 | 5.0 | 0.00 | 0.06 | 0.00 | 75 | 1013.4 |
| 20260904190039 | 74 | 206 | 0.0 | 7.0 | 0.00 | 0.06 | 0.00 | 75 | 1013.5 |
| 20260904184537 | 75 | 194 | 1.0 | 7.0 | 0.00 | 0.06 | 0.00 | 73 | 1013.9 |
| 20260904183035 | 75 | 219 | 3.0 | 8.0 | 0.00 | 0.06 | 0.00 | 71 | 1014.1 |
| 20260904181535 | 76 | 261 | 0.0 | 6.0 | 0.00 | 0.06 | 0.00 | 70 | 1014.0 |
| 20260904180033 | 78 | 170 | 2.0 | 6.0 | 0.00 | 0.06 | 0.00 | 67 | 1014.0 |
| 20260904174533 | 78 | 225 | 2.0 | 9.0 | 0.00 | 0.06 | 0.00 | 68 | 1014.0 |
| 20260904173033 | 77 | 194 | 2.0 | 8.0 | 0.00 | 0.06 | 0.00 | 72 | 1014.1 |
| 20260904171542 | 77 | 166 | 0.0 | 7.0 | 0.00 | 0.06 | 0.00 | 70 | 1014.3 |
| 20260904170032 | 76 | 186 | 3.0 | 8.0 | 0.00 | 0.06 | 0.00 | 68 | 1014.5 |
| 20260904164531 | 78 | 152 | 2.0 | 8.0 | 0.00 | 0.06 | 0.00 | 73 | 1014.7 |
| 20260904163031 | 78 | 181 | 1.0 | 8.0 | 0.00 | 0.06 | 0.00 | 70 | 1014.7 |
| 20260904161534 | 78 | 124 | 2.0 | 5.0 | 0.00 | 0.06 | 0.00 | 70 | 1014.9 |
| 20260904160024 | 77 | 284 | 1.0 | 4.0 | 0.00 | 0.06 | 0.00 | 68 | 1015.1 |
| 20260904154521 | 77 | 260 | 0.0 | 7.0 | 0.00 | 0.06 | 0.00 | 69 | 1014.7 |
| 20260904153022 | 77 | 206 | 1.0 | 4.0 | 0.00 | 0.06 | 0.00 | 67 | 1014.5 |
| 20260904151515 | 76 | 111 | 1.0 | 3.0 | 0.00 | 0.06 | 0.00 | 71 | 1014.5 |
| 20260904150018 | 75 | 293 | 1.0 | 3.0 | 0.00 | 0.06 | 0.00 | 75 | 1014.4 |
| 20260904144508 | 74 | 293 | 0.0 | 2.0 | 0.00 | 0.06 | 0.00 | 73 | 1014.6 |
| 20260904143005 | 73 | 293 | 1.0 | 5.0 | 0.00 | 0.06 | 0.00 | 77 | 1014.5 |
| 20260904141502 | 73 | 323 | 0.0 | 4.0 | 0.00 | 0.06 | 0.00 | 82 | 1014.3 |
| 20260904140057 | 71 | 346 | 0.0 | 4.0 | 0.00 | 0.06 | 0.00 | 85 | 1014.2 |
| 20260904134554 | 69 | 340 | 0.0 | 3.0 | 0.00 | 0.06 | 0.00 | 94 | 1014.1 |
| 20260904133051 | 68 | 340 | 0.0 | 3.0 | 0.00 | 0.06 | 0.00 | 97 | 1014.4 |
| 20260904131559 | 67 | 340 | 0.0 | 1.0 | 0.00 | 0.06 | 0.00 | 98 | 1014.5 |
| 20260904130045 | 67 | 340 | 0.0 | 2.0 | 0.00 | 0.06 | 0.00 | 98 | 1014.5 |
| 20260904124545 | 66 | 340 | 0.0 | 1.0 | 0.00 | 0.06 | 0.00 | 98 | 1014.7 |
| 20260904123044 | 66 | 340 | 0.0 | 1.0 | 0.00 | 0.06 | 0.00 | 98 | 1014.6 |
| 20260904121540 | 64 | 340 | 0.0 | 0.0 | 0.00 | 0.06 | 0.00 | 98 | 1014.4 |
| 20260904120045 | 63 | 340 | 0.0 | 0.0 | 0.00 | 0.06 | 0.00 | 97 | 1014.6 |
| 20260904114535 | 63 | 340 | 0.0 | 0.0 | 0.00 | 0.06 | 0.00 | 96 | 1014.4 |
| 20260904113033 | 62 | 340 | 0.0 | 0.0 | 0.00 | 0.06 | 0.00 | 96 | 1014.2 |
| 20260904111540 | 63 | 340 | 0.0 | 0.0 | 0.00 | 0.06 | 0.00 | 96 | 1014.0 |
| 20260904110025 | 63 | 340 | 0.0 | 0.0 | 0.00 | 0.06 | 0.00 | 96 | 1013.9 |
| 20260904104522 | 63 | 340 | 0.0 | 0.0 | 0.00 | 0.06 | 0.00 | 96 | 1013.8 |
| 20260904103025 | 63 | 340 | 0.0 | 0.0 | 0.00 | 0.06 | 0.00 | 96 | 1013.9 |
| 20260904101519 | 64 | 340 | 0.0 | 0.0 | 0.00 | 0.06 | 0.00 | 96 | 1013.7 |
| 20260904100016 | 64 | 340 | 0.0 | 0.0 | 0.00 | 0.06 | 0.00 | 96 | 1013.8 |
| 20260904094514 | 64 | 340 | 0.0 | 0.0 | 0.00 | 0.06 | 0.00 | 96 | 1013.7 |
| 20260904093013 | 65 | 340 | 0.0 | 0.0 | 0.00 | 0.06 | 0.00 | 96 | 1013.5 |
| 20260904091512 | 65 | 340 | 0.0 | 0.0 | 0.00 | 0.06 | 0.00 | 96 | 1013.5 |
| 20260904090009 | 65 | 340 | 0.0 | 0.0 | 0.00 | 0.06 | 0.00 | 96 | 1013.4 |
| 20260904084510 | 66 | 340 | 0.0 | 2.0 | 0.00 | 0.06 | 0.00 | 96 | 1013.6 |
| 20260904083005 | 66 | 346 | 1.0 | 4.0 | 0.00 | 0.06 | 0.00 | 97 | 1013.5 |
| 20260904081505 | 66 | 15 | 0.0 | 1.0 | 0.00 | 0.06 | 0.00 | 97 | 1013.4 |
| 20260904080001 | 66 | 15 | 0.0 | 2.0 | 0.00 | 0.06 | 0.00 | 96 | 1013.2 |
| 20260904074610 | 66 | 15 | 0.0 | 1.0 | 0.00 | 0.06 | 0.00 | 96 | 1013.2 |
| 20260904073102 | 67 | 15 | 0.0 | 0.0 | 0.00 | 0.06 | 0.00 | 96 | 1012.9 |
| 20260904071559 | 67 | 15 | 0.0 | 0.0 | 0.00 | 0.06 | 0.00 | 96 | 1012.9 |
| 20260904070117 | 67 | 15 | 0.0 | 0.0 | 0.00 | 0.06 | 0.00 | 96 | 1012.9 |
| 20260904064555 | 67 | 15 | 0.0 | 0.0 | 0.00 | 0.06 | 0.00 | 96 | 1013.0 |
| 20260904063102 | 67 | 15 | 0.0 | 1.0 | 0.00 | 0.06 | 0.00 | 97 | 1013.1 |
| 20260904061553 | 68 | 15 | 0.0 | 0.0 | 0.00 | 0.06 | 0.00 | 96 | 1012.9 |
| 20260904060053 | 68 | 15 | 0.0 | 0.0 | 0.00 | 0.06 | 0.00 | 96 | 1012.8 |
| 20260904054551 | 68 | 15 | 0.0 | 1.0 | 0.00 | 0.06 | 0.00 | 96 | 1013.0 |
| 20260904053050 | 68 | 15 | 0.0 | 0.0 | 0.00 | 0.06 | 0.00 | 96 | 1013.0 |
| 20260904051549 | 68 | 15 | 0.0 | 1.0 | 0.00 | 0.06 | 0.00 | 96 | 1013.2 |
| 20260904050050 | 68 | 15 | 0.0 | 0.0 | 0.00 | 0.06 | 0.00 | 96 | 1013.3 |
| 20260904044553 | 68 | 15 | 0.0 | 1.0 | 0.00 | 0.06 | 0.00 | 96 | 1013.3 |
| 20260904043053 | 68 | 15 | 0.0 | 0.0 | 0.00 | 0.06 | 0.00 | 95 | 1013.2 |
| 20260904041546 | 68 | 15 | 0.0 | 0.0 | 0.00 | 0.06 | 0.00 | 95 | 1013.1 |
| 20260904040053 | 68 | 15 | 0.0 | 0.0 | 0.00 | 0.06 | 0.00 | 94 | 1013.3 |
| 20260904034542 | 68 | 15 | 0.0 | 0.0 | 0.00 | 0.06 | 0.06 | 94 | 1013.1 |
| 20260904033040 | 69 | 15 | 0.0 | 0.0 | 0.00 | 0.06 | 0.06 | 94 | 1013.0 |
| 20260904031540 | 69 | 15 | 0.0 | 1.0 | 0.00 | 0.06 | 0.06 | 94 | 1012.8 |
| 20260904030039 | 70 | 15 | 0.0 | 0.0 | 0.00 | 0.06 | 0.06 | 94 | 1012.8 |
| 20260904024539 | 70 | 15 | 0.0 | 3.0 | 0.00 | 0.07 | 0.06 | 93 | 1012.7 |
| 20260904023046 | 70 | 325 | 0.0 | 1.0 | 0.06 | 0.07 | 0.06 | 93 | 1012.7 |
| 20260904021540 | 71 | 325 | 0.0 | 0.0 | 0.06 | 0.07 | 0.06 | 93 | 1012.8 |
| 20260904020037 | 72 | 325 | 0.0 | 2.0 | 0.06 | 0.07 | 0.06 | 92 | 1012.8 |
| 20260904014556 | 72 | 321 | 0.0 | 2.0 | 0.06 | 0.22 | 0.06 | 93 | 1012.7 |
| 20260904013040 | 73 | 321 | 0.0 | 2.0 | 0.00 | 0.16 | 0.00 | 94 | 1012.6 |
| 20260904011536 | 73 | 321 | 0.0 | 1.0 | 0.00 | 0.16 | 0.00 | 94 | 1012.3 |
| 20260904010035 | 74 | 321 | 1.0 | 5.0 | 0.00 | 0.16 | 0.00 | 95 | 1011.9 |
| 20260904004537 | 74 | 314 | 2.0 | 5.0 | 0.00 | 0.18 | 0.00 | 95 | 1011.9 |
| 20260904003033 | 74 | 194 | 2.0 | 7.0 | 0.00 | 0.18 | 0.00 | 95 | 1011.3 |
| 20260904001534 | 74 | 216 | 1.0 | 6.0 | 0.00 | 0.18 | 0.00 | 94 | 1011.3 |
| 20260904000032 | 74 | 225 | 1.0 | 8.0 | 0.00 | 0.18 | 0.00 | 94 | 1011.5 |
| 20260903234532 | 74 | 197 | 2.0 | 11.0 | 0.00 | 0.23 | 0.00 | 92 | 1011.7 |
| 20260903233032 | 74 | 175 | 2.0 | 7.0 | 0.00 | 0.23 | 0.00 | 90 | 1011.6 |
| 20260903231531 | 74 | 217 | 3.0 | 10.0 | 0.00 | 0.23 | 0.00 | 92 | 1011.5 |
| 20260903230030 | 75 | 256 | 3.0 | 17.0 | 0.00 | 0.23 | 0.00 | 91 | 1011.5 |
| 20260903224530 | 75 | 163 | 2.0 | 7.0 | 0.00 | 0.30 | 0.00 | 90 | 1011.6 |
| 20260903223030 | 76 | 260 | 2.0 | 6.0 | 0.00 | 0.30 | 0.00 | 89 | 1011.8 |
| 20260903221530 | 76 | 202 | 2.0 | 5.0 | 0.00 | 0.30 | 0.00 | 89 | 1011.7 |
| 20260903220029 | 77 | 223 | 1.0 | 5.0 | 0.00 | 0.30 | 0.00 | 87 | 1011.3 |
| 20260903214531 | 77 | 206 | 2.0 | 7.0 | 0.00 | 0.30 | 0.00 | 87 | 1011.4 |
| 20260903213028 | 77 | 215 | 2.0 | 4.0 | 0.00 | 0.30 | 0.00 | 87 | 1011.2 |
| 20260903211527 | 77 | 172 | 2.0 | 5.0 | 0.00 | 0.30 | 0.00 | 86 | 1011.1 |
| 20260903210025 | 77 | 239 | 1.0 | 4.0 | 0.00 | 0.30 | 0.00 | 86 | 1011.3 |
| 20260903204530 | 77 | 223 | 0.0 | 6.0 | 0.00 | 0.30 | 0.00 | 85 | 1011.3 |
| 20260903203024 | 77 | 260 | 2.0 | 7.0 | 0.00 | 0.30 | 0.00 | 85 | 1011.7 |
| 20260903201525 | 78 | 240 | 2.0 | 8.0 | 0.00 | 0.30 | 0.00 | 84 | 1011.9 |